Change the Weather History Date:

Monday, November 4, 2013

  Actual Average Record
Temperature  
Mean Temperature 52 °F 48 °F  
Max Temperature 57 °F 58 °F 76 °F (1978)
Min Temperature 46 °F 39 °F 8 °F (1991)
Degree Days  
Heating Degree Days 13 17  
Month to date heating degree days 75 66  
Since 1 July heating degree days 499 460  
Cooling Degree Days 0 0  
Month to date cooling degree days 0 0  
Year to date cooling degree days 1115 1206  
Moisture  
Dew Point 40 °F    
Average Humidity 64    
Maximum Humidity 71    
Minimum Humidity 56    
Precipitation  
Precipitation T in 0.09 in 1.15 in (1990)
Month to date precipitation 0.01 0.36  
Year to date precipitation 31.26 34.25  
Sea Level Pressure  
Sea Level Pressure 30.10 in    
Wind  
Wind Speed 11 mph (SSE)    
Max Wind Speed 22 mph    
Max Gust Speed 28 mph    
Visibility 10 miles    
Events Rain    
T = Trace of Precipitation, MM = Missing Value Source: NWS Daily Summary

Daily Weather History Graph

Daily Weather History Graph

Search for Another Location

Airport or City:

Trip Planner

Search our weather history database for the weather conditions in past years. The results will help you decide how hot, cold, wet, or windy it might be!

Date:

Astronomy

Nov. 04, 2013 Rise Set
Actual Time 6:38 AM CST 4:56 PM CST
Civil Twilight 6:10 AM CST 5:25 PM CST
Nautical Twilight 5:37 AM CST 5:57 PM CST
Astronomical Twilight 5:05 AM CST 6:29 PM CST
Moon 7:49 AM CST (11/4) 6:01 PM CST (11/4)
Length of Visible Light 11h 15m
Length of Day
10h 18m
New Moon, 2% of the Moon is Illuminated
Nov 4
New Moon
Nov 9
First Quarter
Nov 17
Full
Nov 25
Last Quarter
Dec 2
New

Hourly Weather History & Observations

Time (CST) Temp. Windchill Dew Point Humidity Pressure Visibility Wind Dir Wind Speed Gust Speed Precip Events Conditions
12:53 AM 46.9 °F - 34.0 °F 61% 30.12 in 10.0 mi SSE 12.7 mph - N/A   Clear
1:53 AM 46.9 °F - 34.0 °F 61% 30.11 in 10.0 mi SSE 11.5 mph 19.6 mph N/A   Clear
2:53 AM 46.9 °F - 35.1 °F 63% 30.09 in 10.0 mi SE 15.0 mph 23.0 mph N/A   Clear
3:53 AM 46.0 °F 40.6 °F 35.1 °F 66% 30.09 in 10.0 mi SSE 11.5 mph - N/A   Clear
4:53 AM 46.0 °F 40.6 °F 35.1 °F 66% 30.09 in 10.0 mi SSE 11.5 mph - N/A   Clear
5:53 AM 46.0 °F 40.6 °F 36.0 °F 68% 30.09 in 10.0 mi SSE 11.5 mph - N/A   Clear
6:53 AM 46.0 °F 40.2 °F 36.0 °F 68% 30.08 in 10.0 mi South 12.7 mph - N/A   Clear
7:53 AM 46.9 °F - 37.0 °F 68% 30.08 in 10.0 mi SSE 10.4 mph - N/A   Mostly Cloudy
8:53 AM 50.0 °F - 37.0 °F 61% 30.09 in 10.0 mi South 13.8 mph 23.0 mph 0.00 in   Mostly Cloudy
9:53 AM 48.9 °F - 41.0 °F 74% 30.08 in 10.0 mi South 13.8 mph - 0.00 in Rain Light Rain
10:53 AM 50.0 °F - 41.0 °F 71% 30.08 in 10.0 mi South 17.3 mph 25.3 mph 0.00 in   Overcast
11:53 AM 52.0 °F - 41.0 °F 66% 30.07 in 10.0 mi South 12.7 mph - N/A   Overcast
12:53 PM 55.9 °F - 41.0 °F 57% 30.05 in 10.0 mi South 18.4 mph 24.2 mph N/A   Overcast
1:53 PM 55.0 °F - 42.1 °F 62% 30.05 in 10.0 mi South 17.3 mph - N/A   Overcast
2:53 PM 54.0 °F - 42.1 °F 64% 30.06 in 10.0 mi SSW 12.7 mph - N/A   Overcast
3:53 PM 54.0 °F - 43.0 °F 66% 30.08 in 10.0 mi South 8.1 mph - N/A   Overcast
4:53 PM 53.1 °F - 43.0 °F 69% 30.08 in 10.0 mi South 4.6 mph - N/A   Overcast
5:53 PM 53.1 °F - 44.1 °F 71% 30.11 in 10.0 mi South 5.8 mph - N/A   Overcast
6:53 PM 53.1 °F - 45.0 °F 74% 30.13 in 10.0 mi South 5.8 mph - N/A   Overcast
7:53 PM 54.0 °F - 44.1 °F 69% 30.14 in 10.0 mi South 5.8 mph - N/A   Overcast
8:53 PM 54.0 °F - 44.1 °F 69% 30.14 in 10.0 mi SSE 5.8 mph - N/A   Overcast
9:53 PM 54.0 °F - 44.1 °F 69% 30.15 in 10.0 mi SSE 4.6 mph - N/A   Overcast
10:53 PM 54.0 °F - 44.1 °F 69% 30.16 in 10.0 mi South 6.9 mph - N/A   Overcast
11:53 PM 54.0 °F - 45.0 °F 72% 30.16 in 10.0 mi South 6.9 mph - N/A   Overcast